1326412833586,3.93518
1326412893586,3.91960
1326412953586,3.93867
1326413013586,3.91129
1326413073586,3.90854
1326413133586,3.93131
1326413193586,3.94009
1326413253586,3.95050
1326413313586,3.93908
1326413373586,3.94298
1326413433586,3.91307
1326413493586,3.90118
1326413553586,3.92833
1326413613586,3.93503
1326413673586,3.91801
1326413733586,3.90855
1326413793586,3.91045
1326413853586,3.89112
1326413913586,3.93581
1326413973586,3.93912
1326414033586,3.93802
1326414093586,3.94124
1326414153586,3.91574
1326414213586,3.92704
1326414273586,3.93826
1326414333586,3.93824
1326414393586,3.91270
1326414453586,3.91594
1326414513586,3.93718
1326414573586,3.91875
1326414633586,3.89143
1326414693586,3.90955
1326414753586,3.90718
1326414813586,3.93343
1326414873586,3.93343
1326414933586,3.93578
1326414993586,3.90111
1326415053586,3.89590
1326415113586,3.93104
1326415173586,3.94489
1326415233586,3.91798
1326415293586,3.91258
1326415353586,3.93117
1326415413586,3.92384
1326415473586,3.93479
1326415533586,3.93132
1326415593586,3.93473
1326415653586,3.92676
1326415713586,3.95210
1326415773586,3.94015
1326415833586,3.90513
1326415893586,3.94547
1326415953586,3.93763
1326416013586,3.93290
1326416073586,3.93288
1326416133586,3.95876
1326416193586,3.89753
1326416253586,3.93365
1326416313586,3.94846
1326416373586,3.93830
1326416433596,3.96846
1326416493596,3.95475
1326416553596,3.93702
1326416613596,3.96061
1326416673596,3.95329
1326416733596,3.96917
1326416793596,3.96412
1326416853596,3.95480
1326416913596,3.94512
1326416973596,3.95307
1326417033596,3.94989
1326417093596,3.95467
1326417153596,3.93437
1326417213596,3.99642
1326417273596,3.93957
1326417333596,3.96236
1326417393596,3.98107
1326417453596,3.95166
1326417513596,3.95380
1326417573596,3.94140
1326417633596,3.92178
1326417693596,3.94025
1326417753596,3.96607
1326417813596,3.97264
1326417873596,3.96971
1326417933596,3.95226
1326417993596,3.96321
1326418053596,3.94987
1326418113596,3.93490
1326418173596,3.94414
1326418233596,3.93124
1326418293596,3.95118
1326418353596,3.96043
1326418413596,3.95755
1326418473596,3.94222
1326418533596,3.97073
1326418593596,3.95321
1326418653596,3.97811
1326418713596,3.98312
1326418773596,3.95655
1326418833596,3.95320
1326418893596,3.94319
1326418953596,3.95123
1326419013596,3.96197
1326419073596,3.95042
1326419133596,3.94337
1326419193596,3.95708
1326419253596,4.00336
1326419313596,3.96165
1326419373596,3.97125
1326419433596,3.95627
1326419493596,3.97186
1326419553596,3.97687
1326419613596,3.98228
1326419673596,3.98575
1326419733596,3.95138
1326419793596,3.97275
1326419853596,3.99267
1326419913596,3.95268
1326419973596,3.99876
1326420033606,4.00718
1326420093606,3.99818
1326420153606,3.97664
1326420213606,3.98373
1326420273606,3.99518
1326420333606,3.97541
1326420393606,4.01330
1326420453606,3.97837
1326420513606,3.97084
1326420573606,3.98319
1326420633606,4.05026
1326420693606,4.01581
1326420753606,3.99399
1326420813606,3.97963
1326420873606,4.01290
1326420933606,4.02404
1326420993606,4.03013
1326421053606,4.01007
1326421113606,4.02867
1326421173606,4.01730
1326421233606,4.02906
1326421293606,4.06811
1326421353606,4.03673
1326421413606,4.04978
1326421473606,4.04007
1326421533606,4.03081
1326421593606,4.01734
1326421653606,3.98816
1326421713606,4.00119
1326421773606,4.06744
1326421833606,3.99989
1326421893606,4.05010
1326421953606,4.04320
1326422013606,4.03737
1326422073606,4.03535
1326422133606,4.01891
1326422193606,4.08463
1326422253606,4.01392
1326422313606,4.08163
1326422373606,4.00899
1326422433606,4.05023
1326422493606,4.01513
1326422553606,4.02826
1326422613606,3.98090
1326422673606,3.96702
1326422733606,4.02217
1326422793606,4.00425
1326422853606,4.00977
1326422913606,4.02637
1326422973606,4.03132
1326423033606,3.99522
1326423093606,4.00346
1326423153606,3.97231
1326423213606,3.93520
1326423273606,4.00033
1326423333606,3.97718
1326423393606,3.97875
1326423453606,4.01577
1326423513606,4.00271
1326423573606,3.98546
1326423633617,3.96852
1326423693617,4.00425
1326423753617,3.98775
1326423813617,3.97888
1326423873617,4.03549
1326423933617,4.01356
1326423993617,3.97310
1326424053617,3.97699
1326424113617,3.99598
1326424173617,3.99436
1326424233617,3.99948
1326424293617,3.98242
1326424353617,3.96602
1326424413617,3.99095
1326424473617,4.01184
1326424533617,3.96567
1326424593617,4.02517
1326424653617,3.97379
1326424713617,3.98086
1326424773617,3.94708
1326424833617,3.96538
1326424893617,3.96542
1326424953617,3.97308
1326425013617,3.94552
1326425073617,3.98865
1326425133617,3.96375
1326425193617,3.94838
1326425253617,3.96189
1326425313617,3.93534
1326425373617,3.94441
1326425433617,3.96015
1326425493617,3.90706
1326425553617,3.92105
1326425613617,3.94330
1326425673617,3.94008
1326425733617,3.93601
1326425793617,3.94985
1326425853617,3.95348
1326425913617,3.96597
1326425973617,3.95665
1326426033617,3.95846
1326426093617,3.94570
1326426153617,3.94378
1326426213617,3.91324
1326426273617,3.93719
1326426333617,3.93624
1326426393617,3.95457
1326426453617,3.96167
1326426513617,3.95950
1326426573617,3.97816
1326426633617,3.92200
1326426693617,3.96217
1326426753617,3.94860
1326426813617,3.95296
1326426873617,3.94494
1326426933617,3.94944
1326426993617,3.92794
1326427053617,3.93357
1326427113617,3.93536
1326427173617,3.91725
1326427233627,3.96377
1326427293627,3.92426
1326427353627,3.95072
1326427413627,3.95111
1326427473627,3.97237
1326427533627,3.94976
1326427593627,3.93778
1326427653627,3.95329
1326427713627,3.94179
1326427773627,3.94302
1326427833627,3.95177
1326427893627,3.95453
1326427953627,3.93709
1326428013627,3.94378
1326428073627,3.92809
1326428133627,3.92890
1326428193627,3.95756
1326428253627,3.94721
1326428313627,3.94140
1326428373627,3.92466
1326428433627,3.90059
1326428493627,3.91279
1326428553627,3.93826
1326428613627,3.95555
1326428673627,3.93907
1326428733627,3.94151
1326428793627,3.91870
1326428853627,3.90624
1326428913627,3.95526
1326428973627,3.93076
1326429033627,3.93721
1326429093627,3.95003
1326429153627,3.93826
1326429213627,3.94672
1326429273627,3.96459
1326429333627,3.96465
1326429393627,3.96236
1326429453627,3.97307
1326429513627,3.91942
1326429573627,3.97470
1326429633627,3.94059
1326429693627,3.94730
1326429753627,3.94109
1326429813627,3.96909
1326429873627,3.92211
1326429933627,3.97689
1326429993627,3.92016
1326430053627,3.94302
1326430113627,3.92127
1326430173627,3.93010
1326430233627,3.96322
1326430293627,3.97108
1326430353627,3.94098
1326430413627,3.93538
1326430473627,3.95425
1326430533627,3.96715
1326430593627,3.94199
1326430653627,3.95415
1326430713627,3.94020
1326430773627,3.93798
1326430833637,3.93287
1326430893637,3.95865
1326430953637,3.94205
1326431013637,3.99127
1326431073637,3.91957
1326431133637,3.94425
1326431193637,3.96833
1326431253637,3.95234
1326431313637,3.91970
1326431373637,3.96894
1326431433637,3.92992
1326431493637,3.92341
1326431553637,3.92688
1326431613637,3.91420
1326431673637,3.90728
1326431733637,3.91639
1326431793637,3.92505
1326431853637,3.94582
1326431913637,3.91936
1326431973637,3.93105
1326432033637,3.92254
1326432093637,3.95308
1326432153637,3.89759
1326432213637,3.93229
1326432273637,3.93265
1326432333637,3.92756
1326432393637,3.91617
1326432453637,3.95839
1326432513637,3.95568
1326432573637,3.89349
1326432633637,3.92590
1326432693637,3.94693
1326432753637,3.95805
1326432813637,3.90477
1326432873637,3.94826
1326432933637,3.94526
1326432993637,3.92923
1326433053637,3.95573
1326433113637,3.89421
1326433173637,3.93354
1326433233637,3.91772
1326433293637,3.90686
1326433353637,3.96342
1326433413637,3.96200
1326433473637,3.92358
1326433533637,3.93472
1326433593637,3.92454
1326433653637,3.94676
1326433713637,3.94866
1326433773637,3.91068
1326433833637,3.96498
1326433893637,3.89474
1326433953637,3.94732
1326434013637,3.93493
1326434073637,3.94547
1326434133637,3.98142
1326434193637,3.94145
1326434253637,3.93951
1326434313637,3.93978
1326434373637,3.93222
1326434433648,3.92534
1326434493648,3.92508
1326434553648,3.93324
1326434613648,4.01490
1326434673648,4.13073
1326434733648,4.19245
1326434793648,4.13885
1326434853648,4.06552
1326434913648,4.02981
1326434973648,3.96954
1326435033648,3.93676
1326435093648,3.96524
1326435153648,3.94606
1326435213648,3.97241
1326435273648,3.95224
1326435333648,3.94010
1326435393648,3.91400
1326435453648,3.92788
1326435513648,3.89723
1326435573648,3.91876
1326435633648,3.91580
1326435693648,3.92287
1326435753648,3.91835
1326435813648,3.90288
1326435873648,3.93665
1326435933648,3.92564
1326435993648,3.96233
1326436053648,3.90306
1326436113648,3.91709
1326436173648,3.90748
1326436233648,3.92511
1326436293648,3.90931
1326436353648,3.94983
1326436413648,3.90309
1326436473648,3.88393
1326436533648,3.94288
1326436593648,3.91139
1326436653648,3.91856
1326436713648,3.93622
1326436773648,3.93312
1326436833648,3.93550
1326436893648,3.91704
1326436953648,3.94453
1326437013648,3.95350
1326437073648,3.97342
1326437133648,3.93926
1326437193648,3.95268
1326437253648,3.92382
1326437313648,3.96530
1326437373648,3.92941
1326437433648,3.95309
1326437493648,3.94369
1326437553648,3.92760
1326437613648,3.91874
1326437673648,3.93320
1326437733648,3.92149
1326437793648,3.93272
1326437853648,3.92838
1326437913648,3.95689
1326437973648,3.95644
1326438033659,3.93517
1326438093659,3.92684
1326438153659,3.94068
1326438213659,3.94903
1326438273659,3.93369
1326438333659,3.94268
1326438393659,3.94281
1326438453659,3.95975
1326438513659,3.94125
1326438573659,3.96448
1326438633659,3.92534
1326438693659,3.96494
1326438753659,3.95780
1326438813659,3.93987
1326438873659,3.95142
1326438933659,3.95917
1326438993659,3.93969
1326439053659,3.94178
1326439113659,3.94095
1326439173659,3.93438
1326439233659,3.93535
1326439293659,3.95386
1326439353659,3.92161
1326439413659,3.95286
1326439473659,3.94136
1326439533659,3.92711
1326439593659,3.95731
1326439653659,3.89851
1326439713659,3.95058
1326439773659,3.93452
1326439833659,3.98038
1326439893659,3.94370
1326439953659,3.93825
1326440013659,3.91982
1326440073659,3.93073
1326440133659,3.96942
1326440193659,3.92966
1326440253659,3.95134
1326440313659,3.94102
1326440373659,3.97545
1326440433659,3.93644
1326440493659,3.96009
1326440553659,3.99108
1326440613659,3.94905
1326440673659,3.94695
1326440733659,3.94525
1326440793659,3.92467
1326440853659,3.92451
1326440913659,3.94925
1326440973659,3.95278
1326441033659,3.95310
1326441093659,3.96454
1326441153659,3.94077
1326441213659,3.98728
1326441273659,3.94221
1326441333659,3.94711
1326441393659,3.95543
1326441453659,3.97445
1326441513659,3.95481
1326441573659,3.93444
1326441633670,3.95818
1326441693670,3.92291
1326441753670,3.94238
1326441813670,3.96042
1326441873670,3.96694
1326441933670,3.95229
1326441993670,3.97678
1326442053670,3.94399
1326442113670,3.97326
1326442173670,3.96493
1326442233670,3.99469
1326442293670,3.96792
1326442353670,3.94359
1326442413670,3.94488
1326442473670,3.96762
1326442533670,3.99071
1326442593670,3.94205
1326442653670,3.94960
1326442713670,3.95845
1326442773670,3.97059
1326442833670,3.96465
1326442893670,3.95357
1326442953670,3.94416
1326443013670,3.99322
1326443073670,3.96701
1326443133670,3.97812
1326443193670,3.96068
1326443253670,3.97332
1326443313670,3.95990
1326443373670,3.96069
1326443433670,3.92382
1326443493670,3.95738
1326443553670,3.96138
1326443613670,3.95684
1326443673670,3.95501
1326443733670,3.95143
1326443793670,3.92284
1326443853670,3.96418
1326443913670,3.94815
1326443973670,3.94139
1326444033670,3.92708
1326444093670,3.97517
1326444153670,3.93560
1326444213670,3.94435
1326444273670,3.95918
1326444333670,3.97754
1326444393670,3.95275
1326444453670,3.95268
1326444513670,3.94575
1326444573670,3.94213
1326444633670,3.98100
1326444693670,3.91197
1326444753670,3.95817
1326444813670,3.92861
1326444873670,3.98033
1326444933670,3.98960
1326444993670,3.94901
1326445053670,3.96463
1326445113670,3.95958
1326445173670,3.95942
1326445233681,3.94608
1326445293681,3.95277
1326445353681,3.96713
1326445413681,3.98004
1326445473681,3.95701
1326445533681,3.95993
1326445593681,3.94271
1326445653681,3.95656
1326445713681,3.93650
1326445773681,3.92351
1326445833681,3.95191
1326445893681,3.93737
1326446433681,3.96383
1326446493681,3.95811
1326446553681,3.95880
1326446613681,4.02227
1326446673681,3.98117
1326446733681,4.00641
1326446793681,3.98736
1326446853681,3.93727
1326446913681,3.95202
1326446973681,3.95722
1326447033681,3.97202
1326447093681,3.97167
1326447153681,4.04598
1326447213681,3.96065
1326447273681,3.94862
1326447333681,3.97273
1326447393681,3.98031
1326447453681,3.99589
1326447513681,3.93899
1326447573681,3.93703
1326447633681,3.96879
1326447693681,3.94596
1326447753681,3.94162
1326447813681,3.94482
1326447873681,3.93537
1326447933681,3.95785
1326447993681,3.99630
1326448053681,3.96702
1326448113681,3.98026
1326448173681,3.97016
1326448233681,3.94128
1326448293681,3.94662
1326448353681,3.94891
1326448413681,3.97349
1326448473681,3.98288
1326448533681,3.94956
1326448593681,3.96246
1326448653681,3.94133
1326448713681,3.96867
1326448773681,3.94317
1326448833692,3.95978
1326448893692,3.97000
1326448953692,3.96937
1326449013692,3.97389
1326449073692,3.99559
1326449133692,3.98340
1326449193692,3.95993
1326449253692,3.96799
1326449313692,3.94707
1326449373692,3.96009
1326449433692,3.95238
1326449493692,3.92967
1326449553692,3.96711
1326449613692,3.97255
1326449673692,3.97294
1326449733692,3.91157
1326449793692,4.00146
1326449853692,3.95889
1326449913692,3.95583
1326449973692,3.96346
1326450033692,3.93767
1326450093692,3.96660
1326450153692,3.93742
1326450213692,3.94536
1326450273692,3.91561
1326450333692,3.95414
1326450393692,3.92541
1326450453692,3.94855
1326450513692,3.92597
1326450573692,3.93070
1326450633692,3.91001
1326450693692,3.92158
1326450753692,3.94068
1326450813692,3.97617
1326450873692,3.92407
1326450933692,3.94613
1326450993692,3.93566
1326451053692,3.92829
1326451113692,3.94582
1326451173692,3.95294
1326451233692,3.94743
1326451293692,3.94699
1326451353692,3.92670
1326451413692,3.95609
1326451473692,3.97448
1326451533692,3.94648
1326451593692,3.97892
1326451653692,3.95361
1326451713692,3.93835
1326451773692,3.95502
1326451833692,3.93302
1326451893692,3.96057
1326451953692,3.93899
1326452013692,3.90685
1326452073692,3.98395
1326452133692,3.93273
1326452193692,3.93584
1326452253692,3.95190
1326452313692,3.95044
1326452373692,3.94631
1326452433703,3.92861
1326452493703,3.92489
1326452553703,3.97344
1326452613703,3.93783
1326452673703,3.94116
1326452733703,3.95028
1326452793703,3.94992
1326452853703,3.94528
1326452913703,3.90811
1326452973703,3.95273
1326453033703,3.93934
1326453093703,3.94426
1326453153703,3.91717
1326453213703,3.95552
1326453273703,3.93255
1326453333703,3.96044
1326453393703,3.96178
1326453453703,3.90918
1326453513703,3.92364
1326453573703,3.91184
1326453633703,3.94170
1326453693703,3.90984
1326453753703,3.92554
1326453813703,3.92689
1326453873703,3.93967
1326453933703,3.90064
1326453993703,3.95414
1326454053703,3.92887
1326454113703,3.93498
1326454173703,3.93881
1326454233703,3.93463
1326454293703,3.89880
1326454353703,3.89793
1326454413703,3.94361
1326454473703,3.91407
1326454533703,3.91192
1326454593703,3.91265
1326454653703,3.88327
1326454713703,3.88414
1326454773703,3.90238
1326454833703,3.89775
1326454893703,3.91535
1326454953703,3.91091
1326455013703,3.93123
1326455073703,3.91638
1326455133703,3.92853
1326455193703,3.92017
1326455253703,3.91912
1326455313703,3.91038
1326455373703,3.89820
1326455433703,3.93202
1326455493703,3.93566
1326455553703,3.91068
1326455613703,3.92935
1326455673703,3.91971
1326455733703,3.93457
1326455793703,3.91809
1326455853703,3.90455
1326455913703,3.94131
1326455973703,3.89537
1326456033715,3.91687
1326456093715,3.89207
1326456153715,3.92965
1326456213715,3.88270
1326456273715,3.92972
1326456333715,3.88308
1326456393715,3.89753
1326456453715,3.90674
1326456513715,3.92316
1326456573715,3.94081
1326456633715,3.89884
1326456693715,3.90595
1326456753715,3.89949
1326456813715,3.89726
1326456873715,3.92326
1326456933715,3.91137
1326456993715,3.87980
1326457053715,3.90956
1326457113715,3.91505
1326457173715,3.87237
1326457233715,3.90903
1326457293715,3.94151
1326457353715,3.89294
1326457413715,3.90400
1326457473715,3.85903
1326457533715,3.88847
1326457593715,3.90163
1326457653715,3.89013
1326457713715,3.88017
1326457773715,3.88019
1326457833715,3.89576
1326457893715,3.85939
1326457953715,3.86222
1326458013715,3.89307
1326458073715,3.89860
1326458133715,3.89043
1326458193715,3.92825
1326458253715,3.93134
1326458313715,3.91919
1326458373715,3.92321
1326458433715,3.91712
1326458493715,3.87025
1326458553715,3.90009
1326458613715,3.90670
1326458673715,3.91138
1326458733715,3.89962
1326458793715,3.89163
1326458853715,3.89693
1326458913715,3.87249
1326458973715,3.88881
1326459033715,3.89386
1326459093715,3.88317
1326459153715,3.92873
1326459213715,3.89806
1326459273715,3.85030
1326459333715,3.90348
1326459393715,3.90676
1326459453715,3.88755
1326459513715,3.89134
1326459573715,3.90848
1326459633726,3.90219
1326459693726,3.89758
1326459753726,3.89243
1326459813726,3.89818
1326459873726,3.90837
1326459933726,3.88958
1326459993726,3.84793
1326460053726,3.86006
1326460113726,3.91262
1326460173726,3.88220
1326460233726,3.89614
1326460293726,3.89993
1326460353726,3.89466
1326460413726,3.89069
1326460473726,3.88960
1326460533726,3.90455
1326460593726,3.88814
1326460653726,3.90662
1326460713726,3.87179
1326460773726,3.89360
1326460833726,3.88309
1326460893726,3.89115
1326460953726,3.86530
1326461013726,3.84519
1326461073726,3.91966
1326461133726,3.87199
1326461193726,3.88260
1326461253726,3.92194
1326461313726,3.99466
1326461373726,3.98783
1326461433726,3.93663
1326461493726,3.92183
1326461553726,3.93746
1326461613726,3.94302
1326461673726,3.94508
1326461733726,3.95855
1326461793726,3.90685
1326461853726,3.93179
1326461913726,3.93724
1326461973726,3.93349
1326462033726,3.94026
1326462093726,3.88298
1326462153726,3.89976
1326462213726,3.87477
1326462273726,3.88872
1326462333726,3.88587
1326462393726,3.90846
1326462453726,3.92907
1326462513726,3.92327
1326462573726,3.92860
1326462633726,3.91415
1326462693726,3.89601
1326462753726,3.91492
1326462813726,3.91691
1326462873726,3.90745
1326462933726,3.92135
1326462993726,3.92625
1326463053726,3.92765
1326463113726,3.90234
1326463173726,3.90002
1326463233738,3.93133
1326463293738,3.94149
1326463353738,3.93302
1326463413738,3.88670
1326463473738,3.91339
1326463533738,3.91680
1326463593738,3.91737
1326463653738,3.90029
1326463713738,3.91789
1326463773738,3.93216
1326463833737,3.91662
1326463893737,3.91351
1326463953737,3.93980
1326464013737,3.96801
1326464073737,3.93647
1326464133737,3.91046
1326464193737,3.90852
1326464253738,3.88086
1326464313738,3.91902
1326464373738,3.93892
1326464433738,3.91130
1326464493737,3.93274
1326464553737,3.93989
1326464613738,3.93443
1326464673738,3.92877
1326464733738,3.89887
1326464793738,3.93679
1326464853738,3.92749
1326464913738,3.90013
1326464973738,3.91926
1326465033738,3.92147
1326465093738,3.88696
1326465153737,3.93274
1326465213737,3.91451
1326465273737,3.89831
1326465333737,3.92909
1326465393737,3.90864
1326465453737,3.94665
1326465513737,3.91403
1326465573738,3.93457
1326465633738,3.92937
1326465693738,3.91696
1326465753738,3.93607
1326465813737,3.97142
1326465873737,3.92562
1326465933738,3.94052
1326465993738,3.92114
1326466053738,3.92037
1326466113738,3.91461
1326466173738,3.92867
1326466233738,3.91807
1326466293738,3.91912
1326466353738,3.92967
1326466413738,3.97753
1326466473738,3.95472
1326466533737,3.95253
1326466593737,3.91854
1326466653737,3.93491
1326466713737,3.94862
1326466773737,3.96060
1326466833749,3.91828
1326466893749,3.93196
1326466953749,3.94396
1326467013749,3.92555
1326467073749,3.90024
1326467133749,3.93506
1326467193749,3.93200
1326467253749,3.94059
1326467313749,3.97411
1326467373749,3.91841
1326467433749,3.91895
1326467493749,3.92867
1326467553749,3.94668
1326467613749,3.92784
1326467673749,3.91804
1326467733749,3.91549
1326467793749,3.94312
1326467853749,3.94579
1326467913749,3.93324
1326467973749,3.93521
1326468033749,3.93269
1326468093749,3.94679
1326468153749,3.95925
1326468213749,3.95089
1326468273749,3.93239
1326468333749,3.92476
1326468393749,3.93665
1326468453749,3.93974
1326468513749,3.96643
1326468573749,3.94462
1326468633749,3.97062
1326468693749,3.95848
1326468753749,3.94119
1326468813749,3.93391
1326468873749,3.94075
1326468933749,3.96091
1326468993749,3.90411
1326469053749,3.91752
1326469113749,3.94707
1326469173749,3.93533
1326469233749,3.91816
1326469293749,3.91490
1326469353749,3.93557
1326469413749,3.93899
1326469473749,3.91012
1326469533749,3.92025
1326469593749,3.93100
1326469653749,3.90621
1326469713749,3.95536
1326469773749,3.91250
1326469833749,3.94236
1326469893749,3.94513
1326469953749,3.97627
1326470013749,3.93120
1326470073749,3.94697
1326470133749,3.96208
1326470193749,3.93781
1326470253749,3.92143
1326470313749,3.96216
1326470373749,3.94006
1326470433760,3.96438
1326470493760,3.92452
1326470553760,3.94093
1326470613760,3.96089
1326470673760,3.94012
1326470733760,3.95057
1326470793760,3.96872
1326470853760,3.96744
1326470913760,3.98051
1326470973760,3.92635
1326471033760,3.96778
1326471093760,3.93527
1326471153760,3.96173
1326471213760,3.92609
1326471273760,3.92657
1326471333760,3.95824
1326471393760,3.95250
1326471453760,3.95930
1326471513760,3.97901
1326471573760,3.95855
1326471633760,3.96332
1326471693760,3.95065
1326471753760,3.95109
1326471813760,3.94847
1326471873760,3.99149
1326471933760,3.96876
1326471993760,3.96725
1326472053760,3.94267
1326472113760,3.96000
1326472173760,3.97042
1326472233760,3.96781
1326472293760,3.96342
1326472353760,3.97056
1326472413760,3.97402
1326472473760,3.97904
1326472533760,3.98551
1326472593760,3.99528
1326472653760,3.95149
1326472713760,3.94204
1326472773760,3.97033
1326472833760,3.94559
1326472893760,3.96817
1326472953760,3.97864
1326473013760,4.00034
1326473073760,4.00044
1326473133760,3.96428
1326473193760,4.01189
1326473253760,3.99001
1326473313760,3.99627
1326473373760,4.01243
1326473433760,4.01803
1326473493760,4.00935
1326473553760,4.01120
1326473613760,4.00203
1326473673760,4.02167
1326473733760,4.04208
1326473793760,4.06909
1326473853760,4.13635
1326473913760,4.11900
1326473973760,4.11482
1326474033771,4.08685
1326474093771,4.13682
1326474153771,4.09868
1326474213771,4.08278
1326474273771,4.09640
1326474333771,4.06435
1326474393771,4.08649
1326474453771,4.09126
1326474513771,4.08454
1326474573771,4.10158
1326474633771,4.06051
1326474693771,4.06748
1326474753771,4.05534
1326474813771,4.09354
1326474873771,4.03945
1326474933771,4.03763
1326474993771,4.02378
1326475053771,4.04129
1326475113771,4.04328
1326475173771,4.02880
1326475233771,4.02250
1326475293771,4.02098
1326475353771,4.02671
1326475413771,4.01505
1326475473771,4.03592
1326475533771,4.01305
1326475593771,3.99912
1326475653771,4.02038
1326475713771,4.03094
1326475773771,3.99852
1326475833771,4.01913
1326475893771,4.00205
1326475953771,4.00398
1326476013771,3.99680
1326476073771,3.98990
1326476133771,4.00618
1326476193771,4.02163
1326476253771,4.01322
1326476313771,4.01956
1326476373771,3.99479
1326476433771,3.98749
1326476493771,3.97098
1326476553771,3.98360
1326476613771,3.98479
1326476673771,3.98963
1326476733771,4.01697
1326476793771,3.99558
1326476853771,4.01245
1326476913771,3.95793
1326476973771,3.97093
1326477033771,3.98844
1326477093771,4.00156
1326477153771,3.96253
1326477213771,3.98313
1326477273771,3.99347
1326477333771,3.98338
1326477393771,3.99359
1326477453771,4.01425
1326477513771,3.96254
1326477573771,3.98555
1326477633782,3.97217
1326477693782,4.00026
1326477753782,3.96465
1326477813782,4.00175
1326477873782,3.98490
1326477933782,3.97144
1326477993782,3.97107
1326478053782,4.01932
1326478113782,3.99543
1326478173782,3.97613
1326478233782,4.01734
1326478293782,3.96107
1326478353782,3.99676
1326478413782,3.96959
1326478473782,3.98920
1326478533782,3.98463
1326478593782,3.98963
1326478653782,3.99316